Location: Sofia
(42.6977°N, 23.3219°E)
Time: 17:21:57
(UTC+02:00)

Hubble Space Telescope - Pass Details

Date: 23 September 2023
Orbit: 518 x 522 km, 28.5° (Epoch: 06 December)

Event Time Altitude Azimuth Distance (km) Brightness Sun altitude
Exits shadow 04:14:52 - 124° (ESE) 2,555 4.5 -31.9°
Enters shadow 05:14:27 -63° 278° (W) 11,971 7.6 -22.3°
Maximum altitude 05:50:38 11° 181° (S) 1,706 3.2 -16.1°
